Location: Anumalkud?ru
(16.4847°N, 80.6636°E)
Time: 11:49:54
(UTC+00:00)

ATLAS 2A CENTAUR R/B - Pass Details

Date: 11 April 2026
Orbit: 271 x 12899 km, 26.9° (Epoch: 21 May)

Event Time Altitude Azimuth Distance (km) Brightness Sun altitude
Rises 14:05:54 0° 258° (WSW) 3,769 7.2 -18.2°
Reaches altitude 10° 14:09:46 10° 266° (W) 1,889 5.6 -19.1°
Maximum altitude 14:13:04 35° 335° (NNW) 580 2.3 -19.8°
Enters shadow 14:13:18 34° 350° (N) 575 2.1 -19.9°
